Cloud_Cover
100 100 96 100 100 100 100 100 100 100 100 97 39 22 24 16 9 16 14 2 1 0 0 0 63 100 100 100 100 100 100 100 94 87 86 100 97 18 65 73 27 100 100
96 100 100 100 100 100 100 100 100 100 100 99 59 38 4 6 1 8 5 3 4 0 0 0 4 20 100 100 89 100 100 100 100 97 100 93 99 100 100 95 100 100 100
26 98 100 100 100 100 100 100 100 100 100 96 53 52 19 0 0 7 32 54 36 5 5 0 5 5 23 100 100 100 69 25 100 100 100 94 100 100 99 100 100 99 100
35 88 100 100 51 100 100 100 100 100 100 100 86 59 50 11 0 4 38 45 78 5 7 5 5 16 57 100 100 100 55 5 15 91 100 100 98 100 100 100 100 100 100
0 0 96 98 100 75 100 100 100 100 100 100 88 54 52 48 6 0 1 18 8 13 4 5 5 5 15 77 94 99 80 5 5 5 6 100 100 100 100 100 100 100 100
0 0 0 82 100 83 100 100 100 100 100 100 81 99 68 51 9 5 2 74 98 51 6 5 5 9 5 44 86 100 55 5 5 5 5 5 13 97 95 42 97 100 99
3 0 0 1 90 36 100 100 100 100 100 100 100 100 100 47 44 20 5 95 100 100 53 5 0 15 12 5 5 12 12 5 98 18 5 5 5 43 64 47 24 24 54
25 54 59 86 98 98 100 100 100 100 100 100 100 92 100 100 100 78 48 100 100 100 100 76 36 20 5 1 8 5 5 34 98 84 96 11 5 5 5 5 5 5 5
72 27 31 27 15 100 100 100 100 100 100 100 100 100 90 100 100 100 100 100 100 100 91 99 81 34 25 8 4 11 9 71 31 100 100 26 25 6 77 14 5 5 5
100 100 100 62 4 85 100 100 100 100 100 100 100 100 97 100 100 100 100 93 47 36 36 100 96 43 38 32 10 17 90 98 100 100 100 99 17 77 94 60 100 97 80
100 100 93 8 0 4 100 100 100 100 100 100 100 100 100 100 100 100 100 100 99 70 100 100 100 38 38 30 41 29 94 100 84 9 96 94 5 13 83 70 100 66 6
100 100 100 62 17 7 9 93 100 100 100 100 100 100 100 100 100 100 100 79 98 100 100 100 100 92 44 43 11 13 64 100 100 68 72 9 58 67 54 100 59 97 64
100 100 100 100 10 0 0 0 100 100 100 100 100 100 100 100 100 100 100 100 100 100 100 94 66 95 43 50 45 48 94 100 100 99 37 5 5 38 99 100 99 49 100
100 100 100 96 0 35 0 41 100 100 100 100 100 100 100 100 100 100 100 100 100 100 100 100 95 77 16 74 49 100 73 100 100 100 88 34 9 66 99 100 100 97 100
100 100 100 100 83 56 37 44 100 100 100 100 100 100 100 100 100 100 100 100 100 100 100 100 100 92 37 63 41 78 100 100 100 100 100 100 63 92 100 99 100 100 99
100 100 100 100 100 100 85 40 100 100 100 100 100 100 100 100 100 100 100 100 100 100 100 100 100 98 17 56 38 50 44 100 100 100 100 100 100 98 86 100 81 92 100
100 100 100 100 100 100 100 90 100 100 100 100 100 100 100 100 100 100 100 100 100 100 100 100 100 100 37 11 46 94 62 100 100 100 100 100 100 100 100 84 97 100 82
100 100 100 100 100 100 100 100 100 100 100 100 100 100 100 100 100 100 100 100 100 100 100 100 100 100 100 42 74 18 100 99 98 94 100 100 100 100 100 100 100 100 100
100 100 100 100 100 100 100 100 100 100 100 100 100 100 100 100 100 100 100 100 100 100 100 100 100 100 100 94 51 100 95 100 100 100 100 100 100 100 100 100 100 100 100
100 100 100 100 100 100 100 100 100 100 100 100 100 100 100 100 100 100 100 100 100 100 100 100 100 100 100 100 100 100 88 94 100 98 100 100 100 100 100 100 100 100 100
100 100 100 100 100 100 100 100 100 100 100 100 100 100 100 100 100 100 100 100 100 100 100 100 100 100 100 100 100 100 100 100 100 100 100 100 100 100 100 100 100 100 100
100 100 100 100 100 100 100 100 100 100 100 100 100 100 100 100 100 100 100 100 100 100 100 100 100 100 100 100 100 100 100 100 100 100 100 100 100 100 100 100 100 100 100
100 100 100 100 100 100 100 100 100 100 100 100 100 100 100 100 100 100 100 100 100 100 100 100 100 100 100 100 100 100 100 100 100 100 100 99 92 86 100 100 100 100 100
100 100 100 100 100 100 96 100 100 100 100 100 100 100 100 100 100 100 100 100 100 100 100 100 100 100 100 100 100 100 100 100 100 100 100 100 100 100 95 100 100 100 100
100 100 100 100 100 100 100 100 100 100 100 100 100 100 100 100 100 100 100 100 100 100 100 100 100 100 100 100 100 100 100 100 100 100 99 100 99 100 100 88 100 100 100
100 100 100 100 100 100 100 100 100 100 100 100 100 100 100 100 100 100 100 100 100 100 100 100 100 100 100 100 100 100 100 100 100 100 100 63 90 98 100 59 49 96 100